World > North America > United States > Mississippi > Kosciusko  

Kosciusko, MS Hourly Weather Updates

Feedback E-mail the Weather

Quick Clicks

Kosciusko, MS Weather Maps

°F °C°F °C
Kosciusko Weather Map
UTC Time: 5/23/2024, 13:17
Your Time:

Kosciusko, MS Regional Weather

Expires:202405231400;;720498
ASUS44 KJAN 231310
RWRMS 

MISSISSIPPI HOURLY WEATHER ROUNDUP
NATIONAL WEATHER SERVICE JACKSON MS
800 AM CDT THU MAY 23 2024

NOTE: "FAIR: INDICATES FEW OR NO CLOUDS BELOW 12,000 FEET WITH NO
SIGNIFICANT WEATHER AND/OR OBSTRUCTIONS TO VISIBILITY.


MSZ003>006-009-014>017-022>024-029>033-037>039-231400-
NORTHEAST MISSISSIPPI
  
CITY           SKY/WX    TMP DP  RH WIND       PRES   REMARKS
ABERDEEN       PTSUNNY   73  70  88 CALM      29.96R                  
COLUMBUS AFB   PTSUNNY   74  68  80 CALM      29.91R                  
GOLDN TRIANGLE PTSUNNY   73  69  87 N6        29.95R                  
IUKA             N/A     72  72 100 CALM      29.95R                  
LOUISVILLE     PTSUNNY   70  66  88 W5        29.97R                  
STARKVILLE     PTSUNNY   72  68  88 CALM      29.93R                  
TUPELO         MOSUNNY   76  65  68 SW6       29.95R                  
$$


SKY/WX - Weather  TMP - Temperature  DP - Dew Point  RH - Humidity
WIND - Wind Direction/Speed PRES - Barometric Pressure VSB - Visibility
WCI - Wind Chill Index E13G22 Wind - East Wind 13 mph/Gusts of 22 mph

Trending Headlines

Trending Entertainment Headlines

Kosciusko Radar Loop

Use the map search tool if you want to place a location marker on the radar map...

Kosciusko Quick Facts

National Two Day Weather Forecast


E-mail the Kosciusko Weather Forecast

Voice your opinion or tell us about page issues...